Time,TemperatureF,DewpointF,PressureIn,WindDirection,WindDirectionDegrees,WindSpeedMPH,WindSpeedGustMPH,Humidity,HourlyPrecipIn,Conditions,Clouds,dailyrainin,SolarRadiationWatts/m^2,SoftwareType,DateUTC
2013-01-01 00:00:00,36.1,28.6,29.89,NNW,328,0.0,0.0,74,0.00,,,0.01,0,LWC V2.00 B2112,2013-01-01 05:00:00,
2013-01-01 00:05:00,36.2,28.7,29.88,NNW,328,0.0,0.0,74,0.00,,,0.01,0,LWC V2.00 B2112,2013-01-01 05:05:00,
2013-01-01 00:10:00,36.1,28.6,29.89,NNW,328,0.0,0.0,74,0.00,,,0.01,0,LWC V2.00 B2112,2013-01-01 05:10:00,
2013-01-01 00:15:00,36.1,29.0,29.88,NNW,328,0.0,0.0,75,0.00,,,0.01,0,LWC V2.00 B2112,2013-01-01 05:15:00,
2013-01-01 00:20:00,36.1,29.0,29.87,NNW,328,0.0,0.0,75,0.00,,,0.00,0,LWC V2.00 B2112,2013-01-01 05:20:00,
2013-01-01 00:25:00,36.1,29.0,29.86,NNW,328,0.0,0.0,75,0.00,,,0.00,0,LWC V2.00 B2112,2013-01-01 05:25:00,
2013-01-01 00:30:00,36.1,29.0,29.86,NNW,328,0.0,0.0,75,0.00,,,0.00,0,LWC V2.00 B2112,2013-01-01 05:30:00,
2013-01-01 00:35:00,36.1,29.0,29.86,NNW,328,0.0,0.0,75,0.00,,,0.00,0,LWC V2.00 B2112,2013-01-01 05:35:00,
2013-01-01 00:40:00,36.1,29.3,29.87,NNW,328,0.0,0.0,76,0.00,,,0.00,0,LWC V2.00 B2112,2013-01-01 05:40:00,
2013-01-01 00:45:00,36.1,29.0,29.86,NNW,328,0.0,0.0,75,0.00,,,0.00,0,LWC V2.00 B2112,2013-01-01 05:45:00,
2013-01-01 00:50:00,36.1,29.0,29.87,NNW,328,0.0,0.0,75,0.00,,,0.00,0,LWC V2.00 B2112,2013-01-01 05:50:00,
2013-01-01 00:55:00,36.1,29.0,29.86,NNW,328,0.0,0.0,75,0.00,,,0.00,0,LWC V2.00 B2112,2013-01-01 05:55:00,
2013-01-01 01:00:00,36.1,29.0,29.87,NNW,328,0.0,1.0,75,0.00,,,0.00,0,LWC V2.00 B2112,2013-01-01 06:00:00,
2013-01-01 01:05:00,36.1,29.3,29.87,NNW,328,0.0,0.0,76,0.00,,,0.00,0,LWC V2.00 B2112,2013-01-01 06:05:00,
2013-01-01 01:10:00,36.1,29.3,29.87,NNW,328,0.0,0.0,76,0.00,,,0.00,0,LWC V2.00 B2112,2013-01-01 06:10:00,
2013-01-01 01:15:00,36.1,29.3,29.88,NNW,328,0.0,0.0,76,0.00,,,0.00,0,LWC V2.00 B2112,2013-01-01 06:15:00,
2013-01-01 01:20:00,36.2,29.4,29.88,NNW,328,0.0,0.0,76,0.00,,,0.00,0,LWC V2.00 B2112,2013-01-01 06:20:00,
2013-01-01 01:25:00,36.2,29.4,29.87,NNW,328,0.0,0.0,76,0.00,,,0.00,0,LWC V2.00 B2112,2013-01-01 06:25:00,
2013-01-01 01:30:00,36.2,29.4,29.88,NNW,328,0.0,0.0,76,0.00,,,0.00,0,LWC V2.00 B2112,2013-01-01 06:30:00,
2013-01-01 01:35:00,36.2,29.1,29.88,NNW,328,0.0,2.0,75,0.00,,,0.00,0,LWC V2.00 B2112,2013-01-01 06:35:00,
2013-01-01 01:40:00,36.3,29.5,29.87,NNW,328,0.0,1.0,76,0.00,,,0.00,0,LWC V2.00 B2112,2013-01-01 06:40:00,
2013-01-01 01:45:00,36.4,29.6,29.86,NNW,328,0.0,0.0,76,0.00,,,0.00,0,LWC V2.00 B2112,2013-01-01 06:45:00,
2013-01-01 01:50:00,36.4,29.6,29.86,NNW,328,0.0,0.0,76,0.00,,,0.00,0,LWC V2.00 B2112,2013-01-01 06:50:00,
2013-01-01 01:55:00,36.4,29.6,29.87,NNW,328,0.0,0.0,76,0.00,,,0.00,0,LWC V2.00 B2112,2013-01-01 06:55:00,
2013-01-01 02:00:00,36.4,29.6,29.87,NNW,328,0.0,0.0,76,0.00,,,0.00,0,LWC V2.00 B2112,2013-01-01 07:00:00,
2013-01-01 02:05:00,36.4,29.9,29.87,NNW,328,0.0,0.0,77,0.00,,,0.00,0,LWC V2.00 B2112,2013-01-01 07:05:00,
2013-01-01 02:10:00,36.3,29.8,29.87,NNW,328,0.0,0.0,77,0.00,,,0.00,0,LWC V2.00 B2112,2013-01-01 07:10:00,
2013-01-01 02:15:00,36.2,29.7,29.86,NNW,328,0.0,0.0,77,0.00,,,0.00,0,LWC V2.00 B2112,2013-01-01 07:15:00,
2013-01-01 02:20:00,36.2,30.0,29.87,NNW,328,0.0,0.0,78,0.00,,,0.00,0,LWC V2.00 B2112,2013-01-01 07:20:00,
2013-01-01 02:25:00,36.1,29.9,29.86,NNW,328,0.0,0.0,78,0.00,,,0.01,0,LWC V2.00 B2112,2013-01-01 07:25:00,
2013-01-01 02:30:00,36.1,29.9,29.88,NNW,328,0.0,1.0,78,0.00,,,0.01,0,LWC V2.00 B2112,2013-01-01 07:30:00,
2013-01-01 02:35:00,36.2,30.0,29.88,NNW,328,1.0,2.0,78,0.00,,,0.01,0,LWC V2.00 B2112,2013-01-01 07:35:00,
2013-01-01 02:40:00,36.4,30.2,29.87,NNW,328,0.0,0.0,78,0.00,,,0.01,0,LWC V2.00 B2112,2013-01-01 07:40:00,
2013-01-01 02:45:00,36.5,30.6,29.87,NNW,328,1.0,1.0,79,0.00,,,0.01,0,LWC V2.00 B2112,2013-01-01 07:45:00,
2013-01-01 02:50:00,36.9,30.7,29.88,NNW,328,0.0,1.0,78,0.00,,,0.01,0,LWC V2.00 B2112,2013-01-01 07:50:00,
2013-01-01 02:55:00,37.1,30.9,29.88,NNW,328,0.0,1.0,78,0.00,,,0.01,0,LWC V2.00 B2112,2013-01-01 07:55:00,
2013-01-01 03:00:00,37.3,31.1,29.89,NNW,328,0.0,1.0,78,0.00,,,0.01,0,LWC V2.00 B2112,2013-01-01 08:00:00,
2013-01-01 03:05:00,37.4,31.2,29.89,North,355,0.0,0.0,78,0.00,,,0.01,0,LWC V2.00 B2112,2013-01-01 08:05:00,
2013-01-01 03:10:00,37.5,31.3,29.89,North,355,0.0,1.0,78,0.00,,,0.01,0,LWC V2.00 B2112,2013-01-01 08:10:00,
2013-01-01 03:15:00,37.7,31.5,29.88,North,355,1.0,3.0,78,0.00,,,0.01,0,LWC V2.00 B2112,2013-01-01 08:15:00,
2013-01-01 03:20:00,37.9,31.7,29.88,North,355,0.0,2.0,78,0.00,,,0.01,0,LWC V2.00 B2112,2013-01-01 08:20:00,
2013-01-01 03:25:00,38.0,31.4,29.88,North,355,0.0,2.0,77,0.00,,,0.01,0,LWC V2.00 B2112,2013-01-01 08:25:00,
2013-01-01 03:30:00,38.1,31.5,29.88,NNW,333,0.0,3.0,77,0.00,,,0.01,0,LWC V2.00 B2112,2013-01-01 08:30:00,
2013-01-01 03:35:00,38.2,31.6,29.89,NNW,333,0.0,1.0,77,0.00,,,0.01,0,LWC V2.00 B2112,2013-01-01 08:35:00,
2013-01-01 03:40:00,38.2,31.6,29.89,NNW,333,0.0,1.0,77,0.00,,,0.01,0,LWC V2.00 B2112,2013-01-01 08:40:00,
2013-01-01 03:45:00,38.2,31.6,29.88,NNW,333,0.0,2.0,77,0.00,,,0.01,0,LWC V2.00 B2112,2013-01-01 08:45:00,
2013-01-01 03:50:00,38.2,31.6,29.88,NNW,333,0.0,1.0,77,0.00,,,0.01,0,LWC V2.00 B2112,2013-01-01 08:50:00,
2013-01-01 03:55:00,38.2,31.6,29.88,NNW,333,0.0,1.0,77,0.00,,,0.01,0,LWC V2.00 B2112,2013-01-01 08:55:00,
2013-01-01 04:00:00,38.2,31.6,29.88,NNW,333,0.0,1.0,77,0.00,,,0.01,0,LWC V2.00 B2112,2013-01-01 09:00:00,
2013-01-01 04:05:00,38.2,31.6,29.88,NNW,333,0.0,1.0,77,0.00,,,0.01,0,LWC V2.00 B2112,2013-01-01 09:05:00,
2013-01-01 04:10:00,38.2,31.6,29.88,NNW,333,0.0,2.0,77,0.00,,,0.01,0,LWC V2.00 B2112,2013-01-01 09:10:00,
2013-01-01 04:15:00,38.2,31.3,29.88,North,355,2.0,3.0,76,0.00,,,0.01,0,LWC V2.00 B2112,2013-01-01 09:15:00,
2013-01-01 04:20:00,38.3,31.7,29.89,North,355,0.0,1.0,77,0.00,,,0.01,0,LWC V2.00 B2112,2013-01-01 09:20:00,
2013-01-01 04:25:00,38.3,31.7,29.88,North,355,0.0,4.0,77,0.00,,,0.01,0,LWC V2.00 B2112,2013-01-01 09:25:00,
2013-01-01 04:30:00,38.3,31.7,29.88,North,355,0.0,1.0,77,0.00,,,0.01,0,LWC V2.00 B2112,2013-01-01 09:30:00,
2013-01-01 04:35:00,38.3,31.7,29.88,North,355,0.0,0.0,77,0.00,,,0.01,0,LWC V2.00 B2112,2013-01-01 09:35:00,
2013-01-01 04:40:00,38.2,31.6,29.88,North,355,0.0,1.0,77,0.00,,,0.01,0,LWC V2.00 B2112,2013-01-01 09:40:00,
2013-01-01 04:45:00,38.2,31.6,29.88,North,355,0.0,1.0,77,0.00,,,0.02,0,LWC V2.00 B2112,2013-01-01 09:45:00,
2013-01-01 04:51:00,38.2,31.6,29.87,North,355,0.0,1.0,77,0.00,,,0.02,0,LWC V2.00 B2112,2013-01-01 09:51:00,
2013-01-01 04:56:00,38.1,31.9,29.87,North,355,0.0,1.0,78,0.00,,,0.02,0,LWC V2.00 B2112,2013-01-01 09:56:00,
2013-01-01 05:01:00,38.0,31.8,29.87,North,355,0.0,0.0,78,0.00,,,0.02,0,LWC V2.00 B2112,2013-01-01 10:01:00,
2013-01-01 05:06:00,37.9,31.7,29.87,North,355,0.0,1.0,78,0.00,,,0.02,0,LWC V2.00 B2112,2013-01-01 10:06:00,
2013-01-01 05:11:00,37.8,31.6,29.86,North,355,0.0,0.0,78,0.00,,,0.02,0,LWC V2.00 B2112,2013-01-01 10:11:00,
2013-01-01 05:16:00,37.7,31.5,29.86,North,355,0.0,0.0,78,0.00,,,0.02,0,LWC V2.00 B2112,2013-01-01 10:16:00,
2013-01-01 05:21:00,37.5,31.3,29.86,North,355,0.0,1.0,78,0.00,,,0.02,0,LWC V2.00 B2112,2013-01-01 10:21:00,
2013-01-01 05:26:00,37.4,31.2,29.85,North,351,0.0,0.0,78,0.00,,,0.02,0,LWC V2.00 B2112,2013-01-01 10:26:00,
2013-01-01 05:31:00,37.3,31.4,29.86,North,355,0.0,1.0,79,0.00,,,0.02,0,LWC V2.00 B2112,2013-01-01 10:31:00,
2013-01-01 05:36:00,37.3,31.4,29.86,North,355,0.0,2.0,79,0.00,,,0.02,0,LWC V2.00 B2112,2013-01-01 10:36:00,
2013-01-01 05:41:00,37.1,31.2,29.86,North,355,0.0,1.0,79,0.00,,,0.02,0,LWC V2.00 B2112,2013-01-01 10:41:00,
2013-01-01 05:46:00,37.1,31.2,29.86,North,355,0.0,1.0,79,0.00,,,0.02,0,LWC V2.00 B2112,2013-01-01 10:46:00,
2013-01-01 05:51:00,37.0,31.1,29.86,North,355,0.0,1.0,79,0.00,,,0.02,0,LWC V2.00 B2112,2013-01-01 10:51:00,
2013-01-01 05:56:00,36.9,31.0,29.86,North,355,0.0,1.0,79,0.00,,,0.02,0,LWC V2.00 B2112,2013-01-01 10:56:00,
2013-01-01 06:01:00,36.9,31.0,29.87,North,350,0.0,2.0,79,0.00,,,0.02,0,LWC V2.00 B2112,2013-01-01 11:01:00,
2013-01-01 06:06:00,36.9,31.0,29.87,North,350,0.0,1.0,79,0.00,,,0.02,0,LWC V2.00 B2112,2013-01-01 11:06:00,
2013-01-01 06:11:00,36.8,30.9,29.87,North,350,0.0,0.0,79,0.00,,,0.02,0,LWC V2.00 B2112,2013-01-01 11:11:00,
2013-01-01 06:16:00,36.8,31.2,29.88,North,350,0.0,1.0,80,0.00,,,0.02,0,LWC V2.00 B2112,2013-01-01 11:16:00,
2013-01-01 06:21:00,36.7,30.8,29.88,North,350,0.0,2.0,79,0.00,,,0.02,0,LWC V2.00 B2112,2013-01-01 11:21:00,
2013-01-01 06:26:00,36.8,30.9,29.89,North,350,0.0,0.0,79,0.00,,,0.02,0,LWC V2.00 B2112,2013-01-01 11:26:00,
2013-01-01 06:31:00,36.9,31.0,29.88,North,350,0.0,0.0,79,0.00,,,0.02,0,LWC V2.00 B2112,2013-01-01 11:31:00,
2013-01-01 06:36:00,37.0,31.1,29.88,North,350,1.0,2.0,79,0.00,,,0.02,0,LWC V2.00 B2112,2013-01-01 11:36:00,
2013-01-01 06:41:00,37.1,31.2,29.88,North,350,1.0,2.0,79,0.00,,,0.02,0,LWC V2.00 B2112,2013-01-01 11:41:00,
2013-01-01 06:46:00,37.2,31.3,29.89,North,355,1.0,1.0,79,0.00,,,0.02,0,LWC V2.00 B2112,2013-01-01 11:46:00,
2013-01-01 06:51:00,37.4,31.2,29.89,North,355,0.0,1.0,78,0.00,,,0.02,0,LWC V2.00 B2112,2013-01-01 11:51:00,
2013-01-01 06:56:00,37.5,31.3,29.89,North,355,1.0,1.0,78,0.00,,,0.02,0,LWC V2.00 B2112,2013-01-01 11:56:00,
2013-01-01 07:01:00,37.6,31.4,29.88,North,355,0.0,1.0,78,0.00,,,0.02,0,LWC V2.00 B2112,2013-01-01 12:01:00,
2013-01-01 07:06:00,37.6,31.4,29.88,North,355,0.0,0.0,78,0.00,,,0.02,0,LWC V2.00 B2112,2013-01-01 12:06:00,
2013-01-01 07:11:00,37.6,31.4,29.88,North,355,0.0,0.0,78,0.00,,,0.02,0,LWC V2.00 B2112,2013-01-01 12:11:00,
2013-01-01 07:16:00,37.6,31.4,29.89,North,355,0.0,1.0,78,0.00,,,0.02,0,LWC V2.00 B2112,2013-01-01 12:16:00,
2013-01-01 07:21:00,37.5,31.3,29.89,North,355,0.0,2.0,78,0.00,,,0.02,0,LWC V2.00 B2112,2013-01-01 12:21:00,
2013-01-01 07:26:00,37.5,31.3,29.89,North,355,0.0,2.0,78,0.00,,,0.02,0,LWC V2.00 B2112,2013-01-01 12:26:00,
2013-01-01 07:31:00,37.5,31.3,29.89,North,355,0.0,1.0,78,0.00,,,0.02,0,LWC V2.00 B2112,2013-01-01 12:31:00,
2013-01-01 07:36:00,37.5,31.3,29.88,WNW,285,0.0,1.0,78,0.00,,,0.02,0,LWC V2.00 B2112,2013-01-01 12:36:00,
2013-01-01 07:41:00,37.6,31.4,29.88,WSW,244,0.0,0.0,78,0.00,,,0.02,0,LWC V2.00 B2112,2013-01-01 12:41:00,
2013-01-01 07:46:00,37.6,31.4,29.88,WSW,245,0.0,0.0,78,0.00,,,0.02,0,LWC V2.00 B2112,2013-01-01 12:46:00,
2013-01-01 07:51:00,37.6,31.4,29.88,North,355,0.0,0.0,78,0.00,,,0.02,0,LWC V2.00 B2112,2013-01-01 12:51:00,
2013-01-01 07:56:00,37.6,31.4,29.88,North,355,0.0,1.0,78,0.00,,,0.02,0,LWC V2.00 B2112,2013-01-01 12:56:00,
2013-01-01 08:01:00,37.6,31.4,29.89,North,355,1.0,2.0,78,0.00,,,0.02,5,LWC V2.00 B2112,2013-01-01 13:01:00,
2013-01-01 08:06:00,37.6,31.4,29.89,North,355,0.0,1.0,78,0.00,,,0.02,7,LWC V2.00 B2112,2013-01-01 13:06:00,
2013-01-01 08:11:00,37.7,31.5,29.89,North,355,0.0,1.0,78,0.00,,,0.02,7,LWC V2.00 B2112,2013-01-01 13:11:00,
2013-01-01 08:16:00,37.7,31.5,29.89,North,355,0.0,1.0,78,0.00,,,0.02,7,LWC V2.00 B2112,2013-01-01 13:16:00,
2013-01-01 08:21:00,37.8,31.6,29.88,North,355,0.0,0.0,78,0.00,,,0.02,7,LWC V2.00 B2112,2013-01-01 13:21:00,
2013-01-01 08:26:00,37.8,31.6,29.88,NW,310,0.0,1.0,78,0.00,,,0.02,9,LWC V2.00 B2112,2013-01-01 13:26:00,
2013-01-01 08:31:00,37.8,31.6,29.88,NW,310,0.0,1.0,78,0.00,,,0.02,9,LWC V2.00 B2112,2013-01-01 13:31:00,
2013-01-01 08:36:00,37.8,31.6,29.88,NW,310,0.0,1.0,78,0.00,,,0.02,12,LWC V2.00 B2112,2013-01-01 13:36:00,
2013-01-01 08:41:00,37.9,31.3,29.88,NW,310,0.0,0.0,77,0.00,,,0.03,14,LWC V2.00 B2112,2013-01-01 13:41:00,
2013-01-01 08:46:00,38.0,31.8,29.88,NW,310,0.0,0.0,78,0.00,,,0.03,14,LWC V2.00 B2112,2013-01-01 13:46:00,
2013-01-01 08:51:00,38.0,31.8,29.88,NW,310,0.0,1.0,78,0.00,,,0.03,16,LWC V2.00 B2112,2013-01-01 13:51:00,
2013-01-01 08:56:00,38.0,31.8,29.88,NW,310,0.0,0.0,78,0.00,,,0.03,16,LWC V2.00 B2112,2013-01-01 13:56:00,
2013-01-01 09:01:00,38.1,31.5,29.88,NW,310,0.0,1.0,77,0.00,,,0.03,12,LWC V2.00 B2112,2013-01-01 14:01:00,
2013-01-01 09:06:00,38.2,31.6,29.88,NW,313,0.0,1.0,77,0.00,,,0.03,14,LWC V2.00 B2112,2013-01-01 14:06:00,
2013-01-01 09:11:00,38.2,31.6,29.89,NNW,346,0.0,0.0,77,0.00,,,0.03,16,LWC V2.00 B2112,2013-01-01 14:11:00,
2013-01-01 09:16:00,38.3,31.7,29.89,NNW,346,0.0,4.0,77,0.00,,,0.03,16,LWC V2.00 B2112,2013-01-01 14:16:00,
2013-01-01 09:21:00,38.3,31.7,29.89,NNW,346,0.0,0.0,77,0.00,,,0.03,18,LWC V2.00 B2112,2013-01-01 14:21:00,
2013-01-01 09:26:00,38.3,31.4,29.89,North,355,0.0,2.0,76,0.00,,,0.03,18,LWC V2.00 B2112,2013-01-01 14:26:00,
2013-01-01 09:31:00,38.4,31.5,29.89,North,355,0.0,2.0,76,0.00,,,0.03,16,LWC V2.00 B2112,2013-01-01 14:31:00,
2013-01-01 09:36:00,38.6,31.4,29.89,North,355,1.0,1.0,75,0.00,,,0.03,19,LWC V2.00 B2112,2013-01-01 14:36:00,
2013-01-01 09:41:00,38.7,31.8,29.89,North,355,0.0,2.0,76,0.00,,,0.03,21,LWC V2.00 B2112,2013-01-01 14:41:00,
2013-01-01 09:46:00,38.8,31.6,29.89,NW,321,0.0,1.0,75,0.00,,,0.03,26,LWC V2.00 B2112,2013-01-01 14:46:00,
2013-01-01 09:51:00,38.9,31.7,29.89,NW,321,1.0,1.0,75,0.00,,,0.03,26,LWC V2.00 B2112,2013-01-01 14:51:00,
2013-01-01 09:56:00,39.0,31.8,29.89,NW,321,0.0,1.0,75,0.00,,,0.04,28,LWC V2.00 B2112,2013-01-01 14:56:00,
2013-01-01 10:01:00,39.1,31.9,29.89,North,355,0.0,2.0,75,0.00,,,0.04,28,LWC V2.00 B2112,2013-01-01 15:01:00,
2013-01-01 10:06:00,39.2,31.3,29.89,North,355,0.0,3.0,73,0.00,,,0.04,30,LWC V2.00 B2112,2013-01-01 15:06:00,
2013-01-01 10:11:00,39.4,31.8,29.89,North,355,0.0,2.0,74,0.00,,,0.04,33,LWC V2.00 B2112,2013-01-01 15:11:00,
2013-01-01 10:16:00,39.5,32.2,29.89,North,355,1.0,1.0,75,0.00,,,0.04,28,LWC V2.00 B2112,2013-01-01 15:16:00,
2013-01-01 10:21:00,39.7,31.8,29.89,North,355,0.0,1.0,73,0.00,,,0.04,32,LWC V2.00 B2112,2013-01-01 15:21:00,
2013-01-01 10:26:00,39.8,32.2,29.89,North,355,1.0,3.0,74,0.00,,,0.04,32,LWC V2.00 B2112,2013-01-01 15:26:00,
2013-01-01 10:31:00,40.0,32.4,29.89,North,355,1.0,1.0,74,0.00,,,0.04,35,LWC V2.00 B2112,2013-01-01 15:31:00,
2013-01-01 10:36:00,40.1,32.2,29.89,North,355,0.0,1.0,73,0.00,,,0.04,33,LWC V2.00 B2112,2013-01-01 15:36:00,
2013-01-01 10:41:00,40.2,32.2,29.89,North,355,0.0,1.0,73,0.00,,,0.04,32,LWC V2.00 B2112,2013-01-01 15:41:00,
2013-01-01 10:46:00,40.4,31.8,29.88,NW,311,2.0,6.0,71,0.00,,,0.04,30,LWC V2.00 B2112,2013-01-01 15:46:00,
2013-01-01 10:51:00,40.4,31.8,29.88,NNW,327,0.0,2.0,71,0.00,,,0.04,30,LWC V2.00 B2112,2013-01-01 15:51:00,
2013-01-01 10:56:00,40.5,31.8,29.88,NW,325,2.0,2.0,71,0.00,,,0.04,32,LWC V2.00 B2112,2013-01-01 15:56:00,
2013-01-01 11:01:00,40.5,31.5,29.88,West,262,1.0,4.0,70,0.00,,,0.04,35,LWC V2.00 B2112,2013-01-01 16:01:00,
2013-01-01 11:06:00,40.4,31.8,29.88,WSW,240,0.0,2.0,71,0.00,,,0.04,33,LWC V2.00 B2112,2013-01-01 16:06:00,
2013-01-01 11:11:00,40.4,32.1,29.88,WSW,240,1.0,1.0,72,0.00,,,0.04,35,LWC V2.00 B2112,2013-01-01 16:11:00,
2013-01-01 11:16:00,40.3,31.3,29.88,ENE,63,1.0,2.0,70,0.00,,,0.04,33,LWC V2.00 B2112,2013-01-01 16:16:00,
2013-01-01 11:21:00,40.3,31.7,29.88,SW,234,2.0,4.0,71,0.00,,,0.04,32,LWC V2.00 B2112,2013-01-01 16:21:00,
2013-01-01 11:26:00,40.2,31.6,29.87,WNW,303,0.0,3.0,71,0.00,,,0.04,33,LWC V2.00 B2112,2013-01-01 16:26:00,
2013-01-01 11:31:00,40.2,31.6,29.86,NW,304,0.0,1.0,71,0.00,,,0.04,33,LWC V2.00 B2112,2013-01-01 16:31:00,
2013-01-01 11:36:00,40.2,31.6,29.86,NW,304,1.0,4.0,71,0.00,,,0.05,33,LWC V2.00 B2112,2013-01-01 16:36:00,
2013-01-01 11:41:00,40.2,31.6,29.86,NNW,346,1.0,3.0,71,0.00,,,0.05,33,LWC V2.00 B2112,2013-01-01 16:41:00,
2013-01-01 11:46:00,40.2,31.6,29.86,NW,318,1.0,3.0,71,0.00,,,0.05,32,LWC V2.00 B2112,2013-01-01 16:46:00,
2013-01-01 11:51:00,40.3,32.0,29.85,NW,318,0.0,2.0,72,0.00,,,0.05,30,LWC V2.00 B2112,2013-01-01 16:51:00,
2013-01-01 11:56:00,40.3,32.0,29.86,NW,318,0.0,2.0,72,0.00,,,0.05,25,LWC V2.00 B2112,2013-01-01 16:56:00,
2013-01-01 12:01:00,40.2,31.9,29.85,NW,318,1.0,1.0,72,0.00,,,0.05,23,LWC V2.00 B2112,2013-01-01 17:01:00,
2013-01-01 12:06:00,40.2,31.6,29.84,NW,318,0.0,2.0,71,0.00,,,0.05,21,LWC V2.00 B2112,2013-01-01 17:06:00,
2013-01-01 12:07:00,40.2,31.6,29.84,NW,318,0.0,2.0,71,0.00,,,0.05,21,LWC V2.00 B2112,2013-01-01 17:07:00,
2013-01-01 12:12:00,40.1,31.5,29.85,North,355,0.0,4.0,71,0.00,,,0.05,23,LWC V2.00 B2112,2013-01-01 17:12:00,
2013-01-01 12:17:00,40.1,31.5,29.84,NW,320,0.0,2.0,71,0.00,,,0.05,18,LWC V2.00 B2112,2013-01-01 17:17:00,
2013-01-01 12:21:00,40.0,31.7,29.85,NW,321,1.0,4.0,72,0.00,,,0.05,25,LWC V2.00 B2112,2013-01-01 17:21:00,
2013-01-01 12:27:00,40.0,31.7,29.85,NW,321,0.0,2.0,72,0.00,,,0.05,19,LWC V2.00 B2112,2013-01-01 17:27:00,
2013-01-01 12:32:00,40.0,31.4,29.84,NNW,330,0.0,3.0,71,0.00,,,0.05,18,LWC V2.00 B2112,2013-01-01 17:32:00,
2013-01-01 12:37:00,40.0,31.7,29.84,NNW,347,1.0,1.0,72,0.00,,,0.05,18,LWC V2.00 B2112,2013-01-01 17:37:00,
2013-01-01 12:42:00,40.0,31.7,29.84,NNW,347,1.0,3.0,72,0.00,,,0.05,18,LWC V2.00 B2112,2013-01-01 17:42:00,
2013-01-01 12:47:00,39.9,31.6,29.84,North,349,2.0,2.0,72,0.00,,,0.05,16,LWC V2.00 B2112,2013-01-01 17:47:00,
2013-01-01 12:52:00,39.9,31.3,29.84,North,349,1.0,1.0,71,0.00,,,0.05,16,LWC V2.00 B2112,2013-01-01 17:52:00,
2013-01-01 12:57:00,39.9,31.6,29.85,NNW,345,1.0,3.0,72,0.00,,,0.05,12,LWC V2.00 B2112,2013-01-01 17:57:00,
2013-01-01 13:02:00,39.9,30.9,29.85,NW,320,3.0,6.0,70,0.00,,,0.05,11,LWC V2.00 B2112,2013-01-01 18:02:00,
2013-01-01 13:07:00,39.9,31.3,29.84,NW,313,0.0,4.0,71,0.00,,,0.05,9,LWC V2.00 B2112,2013-01-01 18:07:00,
2013-01-01 13:12:00,39.8,31.2,29.84,West,277,2.0,5.0,71,0.00,,,0.05,7,LWC V2.00 B2112,2013-01-01 18:12:00,
2013-01-01 13:17:00,39.7,31.1,29.84,NNW,330,1.0,5.0,71,0.00,,,0.05,12,LWC V2.00 B2112,2013-01-01 18:17:00,
2013-01-01 13:22:00,39.7,31.1,29.84,North,355,1.0,4.0,71,0.00,,,0.05,11,LWC V2.00 B2112,2013-01-01 18:22:00,
2013-01-01 13:27:00,39.7,31.1,29.83,South,186,2.0,5.0,71,0.00,,,0.05,11,LWC V2.00 B2112,2013-01-01 18:27:00,
2013-01-01 13:32:00,39.6,31.3,29.83,SW,236,1.0,4.0,72,0.00,,,0.05,7,LWC V2.00 B2112,2013-01-01 18:32:00,
2013-01-01 13:37:00,39.5,31.2,29.83,SW,228,3.0,4.0,72,0.00,,,0.05,7,LWC V2.00 B2112,2013-01-01 18:37:00,
2013-01-01 13:42:00,39.3,31.4,29.83,West,266,3.0,7.0,73,0.00,,,0.05,7,LWC V2.00 B2112,2013-01-01 18:42:00,
2013-01-01 13:47:00,38.8,32.5,29.83,SW,236,2.0,7.0,78,0.00,,,0.05,12,LWC V2.00 B2112,2013-01-01 18:47:00,
2013-01-01 13:52:00,38.3,32.7,29.83,WSW,256,0.0,4.0,80,0.00,,,0.05,14,LWC V2.00 B2112,2013-01-01 18:52:00,
2013-01-01 13:57:00,37.9,32.6,29.83,WSW,246,2.0,6.0,81,0.00,,,0.05,12,LWC V2.00 B2112,2013-01-01 18:57:00,
2013-01-01 14:02:00,37.5,32.5,29.84,South,178,1.0,4.0,82,0.00,,,0.05,14,LWC V2.00 B2112,2013-01-01 19:02:00,
2013-01-01 14:07:00,37.1,32.1,29.83,SSW,207,1.0,3.0,82,0.00,,,0.05,11,LWC V2.00 B2112,2013-01-01 19:07:00,
2013-01-01 14:12:00,37.0,31.4,29.83,SSW,211,1.0,3.0,80,0.00,,,0.05,12,LWC V2.00 B2112,2013-01-01 19:12:00,
2013-01-01 14:17:00,37.0,31.4,29.83,West,270,2.0,3.0,80,0.00,,,0.05,12,LWC V2.00 B2112,2013-01-01 19:17:00,
2013-01-01 14:22:00,37.1,30.6,29.83,SSW,194,0.0,4.0,77,0.00,,,0.05,11,LWC V2.00 B2112,2013-01-01 19:22:00,
2013-01-01 14:27:00,37.3,30.4,29.84,South,175,1.0,3.0,76,0.00,,,0.05,9,LWC V2.00 B2112,2013-01-01 19:27:00,
2013-01-01 14:32:00,37.4,30.2,29.84,South,187,0.0,1.0,75,0.00,,,0.05,9,LWC V2.00 B2112,2013-01-01 19:32:00,
2013-01-01 14:37:00,37.5,30.6,29.85,SSW,194,1.0,2.0,76,0.00,,,0.05,9,LWC V2.00 B2112,2013-01-01 19:37:00,
2013-01-01 14:42:00,37.5,30.0,29.84,SW,230,1.0,1.0,74,0.00,,,0.05,9,LWC V2.00 B2112,2013-01-01 19:42:00,
2013-01-01 14:47:00,37.6,29.7,29.84,South,189,2.0,3.0,73,0.00,,,0.05,5,LWC V2.00 B2112,2013-01-01 19:47:00,
2013-01-01 14:52:00,37.7,29.5,29.84,NNE,19,0.0,4.0,72,0.00,,,0.05,7,LWC V2.00 B2112,2013-01-01 19:52:00,
2013-01-01 14:57:00,37.7,29.2,29.83,NNE,19,3.0,3.0,71,0.00,,,0.05,7,LWC V2.00 B2112,2013-01-01 19:57:00,
2013-01-01 15:02:00,37.7,29.2,29.84,NNE,19,0.0,3.0,71,0.00,,,0.05,7,LWC V2.00 B2112,2013-01-01 20:02:00,
2013-01-01 15:07:00,37.7,29.2,29.84,NNE,19,0.0,3.0,71,0.00,,,0.05,7,LWC V2.00 B2112,2013-01-01 20:07:00,
2013-01-01 15:12:00,37.7,29.2,29.83,NNE,19,1.0,3.0,71,0.00,,,0.05,9,LWC V2.00 B2112,2013-01-01 20:12:00,
2013-01-01 15:17:00,37.7,29.2,29.84,NNE,19,0.0,2.0,71,0.00,,,0.05,7,LWC V2.00 B2112,2013-01-01 20:17:00,
2013-01-01 15:22:00,37.7,28.8,29.85,NNE,19,0.0,1.0,70,0.00,,,0.05,9,LWC V2.00 B2112,2013-01-01 20:22:00,
2013-01-01 15:27:00,37.7,29.2,29.84,NNE,19,0.0,0.0,71,0.00,,,0.05,7,LWC V2.00 B2112,2013-01-01 20:27:00,
2013-01-01 15:32:00,37.7,28.5,29.85,NNE,19,0.0,1.0,69,0.00,,,0.05,9,LWC V2.00 B2112,2013-01-01 20:32:00,
2013-01-01 15:37:00,37.7,28.8,29.86,NNE,19,1.0,1.0,70,0.00,,,0.05,9,LWC V2.00 B2112,2013-01-01 20:37:00,
2013-01-01 15:42:00,37.7,28.5,29.86,NNE,19,0.0,0.0,69,0.00,,,0.05,7,LWC V2.00 B2112,2013-01-01 20:42:00,
2013-01-01 15:47:00,37.7,28.5,29.86,NNE,19,0.0,3.0,69,0.00,,,0.05,7,LWC V2.00 B2112,2013-01-01 20:47:00,
2013-01-01 15:52:00,37.7,27.7,29.87,NNE,19,0.0,2.0,67,0.00,,,0.05,7,LWC V2.00 B2112,2013-01-01 20:52:00,
2013-01-01 15:57:00,37.8,28.9,29.87,NNE,19,0.0,0.0,70,0.00,,,0.05,5,LWC V2.00 B2112,2013-01-01 20:57:00,
2013-01-01 16:02:00,37.7,29.2,29.87,NNE,19,0.0,1.0,71,0.00,,,0.05,5,LWC V2.00 B2112,2013-01-01 21:02:00,
2013-01-01 16:07:00,37.6,29.1,29.87,NNE,19,0.0,0.0,71,0.00,,,0.05,0,LWC V2.00 B2112,2013-01-01 21:07:00,
2013-01-01 16:12:00,37.6,29.4,29.87,NNE,19,0.0,0.0,72,0.00,,,0.05,0,LWC V2.00 B2112,2013-01-01 21:12:00,
2013-01-01 16:17:00,37.5,29.6,29.87,NNE,19,0.0,0.0,73,0.00,,,0.05,0,LWC V2.00 B2112,2013-01-01 21:17:00,
2013-01-01 16:22:00,37.4,29.5,29.87,NNE,19,0.0,1.0,73,0.00,,,0.05,0,LWC V2.00 B2112,2013-01-01 21:22:00,
2013-01-01 16:27:00,37.3,29.5,29.87,NNE,19,0.0,0.0,73,0.00,,,0.05,0,LWC V2.00 B2112,2013-01-01 21:27:00,
2013-01-01 16:32:00,37.2,29.7,29.86,NNE,19,0.0,0.0,74,0.00,,,0.05,0,LWC V2.00 B2112,2013-01-01 21:32:00,
2013-01-01 16:37:00,37.1,29.6,29.87,NNE,19,0.0,0.0,74,0.00,,,0.05,0,LWC V2.00 B2112,2013-01-01 21:37:00,
2013-01-01 16:42:00,37.0,29.5,29.87,NNE,19,0.0,0.0,74,0.00,,,0.05,0,LWC V2.00 B2112,2013-01-01 21:42:00,
2013-01-01 16:47:00,36.9,29.7,29.86,NNE,19,0.0,1.0,75,0.00,,,0.05,0,LWC V2.00 B2112,2013-01-01 21:47:00,
2013-01-01 16:52:00,36.9,29.4,29.87,NNE,19,0.0,1.0,74,0.00,,,0.05,0,LWC V2.00 B2112,2013-01-01 21:52:00,
2013-01-01 16:57:00,36.9,29.4,29.88,NNE,19,0.0,1.0,74,0.00,,,0.05,0,LWC V2.00 B2112,2013-01-01 21:57:00,
2013-01-01 17:02:00,36.8,29.3,29.88,NNE,19,0.0,0.0,74,0.00,,,0.05,0,LWC V2.00 B2112,2013-01-01 22:02:00,
2013-01-01 17:07:00,36.8,29.3,29.89,NNE,19,2.0,2.0,74,0.00,,,0.05,0,LWC V2.00 B2112,2013-01-01 22:07:00,
2013-01-01 17:12:00,36.8,28.3,29.89,NNE,19,1.0,3.0,71,0.00,,,0.05,0,LWC V2.00 B2112,2013-01-01 22:12:00,
2013-01-01 17:17:00,36.8,26.5,29.89,NNE,19,0.0,5.0,66,0.00,,,0.05,0,LWC V2.00 B2112,2013-01-01 22:17:00,
2013-01-01 17:22:00,36.9,26.2,29.89,NNE,19,4.0,7.0,65,0.00,,,0.05,0,LWC V2.00 B2112,2013-01-01 22:22:00,
2013-01-01 17:27:00,37.0,26.3,29.89,NNE,19,1.0,4.0,65,0.00,,,0.05,0,LWC V2.00 B2112,2013-01-01 22:27:00,
2013-01-01 17:32:00,36.9,25.9,29.90,NNE,19,0.0,5.0,64,0.00,,,0.05,0,LWC V2.00 B2112,2013-01-01 22:32:00,
2013-01-01 17:37:00,36.9,25.5,29.90,NNE,19,1.0,2.0,63,0.00,,,0.05,0,LWC V2.00 B2112,2013-01-01 22:37:00,
2013-01-01 17:42:00,36.8,25.0,29.89,NNE,19,0.0,2.0,62,0.00,,,0.05,0,LWC V2.00 B2112,2013-01-01 22:42:00,
2013-01-01 17:47:00,36.6,24.8,29.90,NNE,19,2.0,3.0,62,0.00,,,0.05,0,LWC V2.00 B2112,2013-01-01 22:47:00,
2013-01-01 17:52:00,36.5,24.7,29.89,NNE,19,2.0,3.0,62,0.00,,,0.05,0,LWC V2.00 B2112,2013-01-01 22:52:00,
2013-01-01 17:57:00,36.3,24.2,29.90,NNE,19,1.0,2.0,61,0.00,,,0.05,0,LWC V2.00 B2112,2013-01-01 22:57:00,
2013-01-01 18:02:00,36.1,24.0,29.90,NNE,19,1.0,2.0,61,0.00,,,0.05,0,LWC V2.00 B2112,2013-01-01 23:02:00,
2013-01-01 18:07:00,35.9,23.8,29.90,South,190,2.0,4.0,61,0.00,,,0.05,0,LWC V2.00 B2112,2013-01-01 23:07:00,
2013-01-01 18:12:00,35.7,23.2,29.91,WNW,296,1.0,3.0,60,0.00,,,0.05,0,LWC V2.00 B2112,2013-01-01 23:12:00,
2013-01-01 18:17:00,35.5,23.0,29.91,WSW,241,1.0,5.0,60,0.00,,,0.05,0,LWC V2.00 B2112,2013-01-01 23:17:00,
2013-01-01 18:22:00,35.3,22.4,29.92,WSW,244,1.0,4.0,59,0.00,,,0.05,0,LWC V2.00 B2112,2013-01-01 23:22:00,
2013-01-01 18:27:00,35.2,22.3,29.93,WSW,244,0.0,2.0,59,0.00,,,0.05,0,LWC V2.00 B2112,2013-01-01 23:27:00,
2013-01-01 18:32:00,35.0,22.1,29.93,WSW,241,4.0,4.0,59,0.00,,,0.05,0,LWC V2.00 B2112,2013-01-01 23:32:00,
2013-01-01 18:37:00,34.8,21.5,29.92,WSW,251,1.0,3.0,58,0.00,,,0.05,0,LWC V2.00 B2112,2013-01-01 23:37:00,
2013-01-01 18:42:00,34.7,21.5,29.93,West,274,2.0,3.0,58,0.00,,,0.05,0,LWC V2.00 B2112,2013-01-01 23:42:00,
2013-01-01 18:47:00,34.6,21.8,29.93,SW,219,2.0,5.0,59,0.00,,,0.05,0,LWC V2.00 B2112,2013-01-01 23:47:00,
2013-01-01 18:52:00,34.5,21.3,29.93,South,190,2.0,3.0,58,0.00,,,0.05,0,LWC V2.00 B2112,2013-01-01 23:52:00,
2013-01-01 18:57:00,34.4,20.8,29.93,SW,232,2.0,3.0,57,0.00,,,0.05,0,LWC V2.00 B2112,2013-01-01 23:57:00,
2013-01-01 19:02:00,34.4,20.8,29.94,WSW,238,0.0,2.0,57,0.00,,,0.05,0,LWC V2.00 B2112,2013-01-02 00:02:00,
2013-01-01 19:07:00,34.2,20.6,29.94,WSW,252,3.0,4.0,57,0.00,,,0.05,0,LWC V2.00 B2112,2013-01-02 00:07:00,
2013-01-01 19:12:00,34.2,20.2,29.93,NW,321,1.0,3.0,56,0.00,,,0.05,0,LWC V2.00 B2112,2013-01-02 00:12:00,
2013-01-01 19:17:00,34.1,20.1,29.94,SW,225,2.0,2.0,56,0.00,,,0.05,0,LWC V2.00 B2112,2013-01-02 00:17:00,
2013-01-01 19:22:00,34.0,20.0,29.94,SW,236,1.0,3.0,56,0.00,,,0.05,0,LWC V2.00 B2112,2013-01-02 00:22:00,
2013-01-01 19:27:00,33.9,19.9,29.94,West,268,3.0,3.0,56,0.00,,,0.05,0,LWC V2.00 B2112,2013-01-02 00:27:00,
2013-01-01 19:32:00,33.8,20.2,29.93,West,259,0.0,3.0,57,0.00,,,0.05,0,LWC V2.00 B2112,2013-01-02 00:32:00,
2013-01-01 19:37:00,33.7,19.7,29.93,West,261,4.0,4.0,56,0.00,,,0.05,0,LWC V2.00 B2112,2013-01-02 00:37:00,
2013-01-01 19:42:00,33.6,19.6,29.93,WSW,258,1.0,4.0,56,0.00,,,0.05,0,LWC V2.00 B2112,2013-01-02 00:42:00,
2013-01-01 19:47:00,33.5,19.5,29.94,West,271,1.0,3.0,56,0.00,,,0.05,0,LWC V2.00 B2112,2013-01-02 00:47:00,
2013-01-01 19:52:00,33.4,19.4,29.94,West,278,2.0,5.0,56,0.00,,,0.05,0,LWC V2.00 B2112,2013-01-02 00:52:00,
2013-01-01 19:57:00,33.4,19.4,29.94,WSW,250,1.0,2.0,56,0.00,,,0.05,0,LWC V2.00 B2112,2013-01-02 00:57:00,
2013-01-01 20:02:00,33.3,19.3,29.95,SSW,209,1.0,3.0,56,0.00,,,0.05,0,LWC V2.00 B2112,2013-01-02 01:02:00,
2013-01-01 20:07:00,33.2,19.2,29.95,WSW,250,6.0,6.0,56,0.00,,,0.05,0,LWC V2.00 B2112,2013-01-02 01:07:00,
2013-01-01 20:12:00,33.2,19.2,29.95,SW,229,1.0,2.0,56,0.00,,,0.05,0,LWC V2.00 B2112,2013-01-02 01:12:00,
2013-01-01 20:17:00,33.0,19.5,29.95,SW,224,0.0,2.0,57,0.00,,,0.05,0,LWC V2.00 B2112,2013-01-02 01:17:00,
2013-01-01 20:22:00,32.9,19.4,29.95,SW,224,1.0,2.0,57,0.00,,,0.05,0,LWC V2.00 B2112,2013-01-02 01:22:00,
2013-01-01 20:27:00,32.8,19.3,29.95,SW,224,1.0,3.0,57,0.00,,,0.05,0,LWC V2.00 B2112,2013-01-02 01:27:00,
2013-01-01 20:32:00,32.6,19.1,29.95,SSW,194,1.0,2.0,57,0.00,,,0.05,0,LWC V2.00 B2112,2013-01-02 01:32:00,
2013-01-01 20:37:00,32.6,18.7,29.95,WSW,239,1.0,3.0,56,0.00,,,0.05,0,LWC V2.00 B2112,2013-01-02 01:37:00,
2013-01-01 20:42:00,32.6,18.7,29.96,SW,225,1.0,4.0,56,0.00,,,0.05,0,LWC V2.00 B2112,2013-01-02 01:42:00,
2013-01-01 20:47:00,32.5,18.6,29.96,West,263,1.0,3.0,56,0.00,,,0.05,0,LWC V2.00 B2112,2013-01-02 01:47:00,
2013-01-01 20:52:00,32.5,18.6,29.95,SSW,209,1.0,7.0,56,0.00,,,0.05,0,LWC V2.00 B2112,2013-01-02 01:52:00,
2013-01-01 20:57:00,32.4,18.5,29.95,South,171,3.0,5.0,56,0.00,,,0.05,0,LWC V2.00 B2112,2013-01-02 01:57:00,
2013-01-01 21:02:00,32.4,18.5,29.95,WSW,240,2.0,3.0,56,0.00,,,0.05,0,LWC V2.00 B2112,2013-01-02 02:02:00,
2013-01-01 21:07:00,32.3,18.8,29.96,SSW,196,2.0,2.0,57,0.00,,,0.05,0,LWC V2.00 B2112,2013-01-02 02:07:00,
2013-01-01 21:12:00,32.2,18.7,29.96,WSW,240,2.0,3.0,57,0.00,,,0.05,0,LWC V2.00 B2112,2013-01-02 02:12:00,
2013-01-01 21:17:00,32.1,18.6,29.97,West,265,2.0,5.0,57,0.00,,,0.05,0,LWC V2.00 B2112,2013-01-02 02:17:00,
2013-01-01 21:22:00,32.0,18.9,29.97,West,265,0.0,6.0,58,0.00,,,0.05,0,LWC V2.00 B2112,2013-01-02 02:22:00,
2013-01-01 21:27:00,31.9,18.8,29.96,WSW,248,2.0,3.0,58,0.00,,,0.05,0,LWC V2.00 B2112,2013-01-02 02:27:00,
2013-01-01 21:32:00,31.8,18.7,29.96,WSW,248,0.0,1.0,58,0.00,,,0.05,0,LWC V2.00 B2112,2013-01-02 02:32:00,
2013-01-01 21:37:00,31.6,19.3,29.97,West,272,1.0,2.0,60,0.00,,,0.05,0,LWC V2.00 B2112,2013-01-02 02:37:00,
2013-01-01 21:42:00,31.5,19.2,29.97,SW,234,2.0,6.0,60,0.00,,,0.05,0,LWC V2.00 B2112,2013-01-02 02:42:00,
2013-01-01 21:47:00,31.3,19.0,29.97,WSW,248,3.0,6.0,60,0.00,,,0.05,0,LWC V2.00 B2112,2013-01-02 02:47:00,
2013-01-01 21:52:00,31.1,19.2,29.98,West,273,1.0,3.0,61,0.00,,,0.05,0,LWC V2.00 B2112,2013-01-02 02:52:00,
2013-01-01 21:57:00,30.9,19.1,29.97,SW,236,2.0,3.0,61,0.00,,,0.05,0,LWC V2.00 B2112,2013-01-02 02:57:00,
2013-01-01 22:02:00,30.7,18.9,29.98,WSW,246,2.0,3.0,61,0.00,,,0.05,0,LWC V2.00 B2112,2013-01-02 03:02:00,
2013-01-01 22:07:00,30.6,18.4,29.98,West,265,4.0,6.0,60,0.00,,,0.05,0,LWC V2.00 B2112,2013-01-02 03:07:00,
2013-01-01 22:12:00,30.5,18.3,29.98,West,279,3.0,3.0,60,0.00,,,0.05,0,LWC V2.00 B2112,2013-01-02 03:12:00,
2013-01-01 22:17:00,30.4,18.2,29.99,WSW,240,1.0,3.0,60,0.00,,,0.05,0,LWC V2.00 B2112,2013-01-02 03:17:00,
2013-01-01 22:22:00,30.2,17.2,29.99,West,264,2.0,4.0,58,0.00,,,0.05,0,LWC V2.00 B2112,2013-01-02 03:22:00,
2013-01-01 22:27:00,30.1,16.7,29.99,SSW,205,4.0,6.0,57,0.00,,,0.05,0,LWC V2.00 B2112,2013-01-02 03:27:00,
2013-01-01 22:32:00,29.9,16.5,30.00,WSW,248,0.0,7.0,57,0.00,,,0.05,0,LWC V2.00 B2112,2013-01-02 03:32:00,
2013-01-01 22:37:00,29.9,16.5,29.99,SW,236,2.0,6.0,57,0.00,,,0.05,0,LWC V2.00 B2112,2013-01-02 03:37:00,
2013-01-01 22:42:00,29.7,15.9,29.99,WSW,258,4.0,5.0,56,0.00,,,0.05,0,LWC V2.00 B2112,2013-01-02 03:42:00,
2013-01-01 22:47:00,29.7,15.5,29.99,WSW,237,1.0,7.0,55,0.00,,,0.05,0,LWC V2.00 B2112,2013-01-02 03:47:00,
2013-01-01 22:52:00,29.6,15.9,29.99,West,267,1.0,5.0,56,0.00,,,0.05,0,LWC V2.00 B2112,2013-01-02 03:52:00,
2013-01-01 22:57:00,29.5,15.8,29.99,SW,223,1.0,7.0,56,0.00,,,0.05,0,LWC V2.00 B2112,2013-01-02 03:57:00,
2013-01-01 23:02:00,29.4,15.7,29.99,SW,235,2.0,4.0,56,0.00,,,0.05,0,LWC V2.00 B2112,2013-01-02 04:02:00,
2013-01-01 23:07:00,29.4,15.7,30.00,SSW,192,3.0,5.0,56,0.00,,,0.05,0,LWC V2.00 B2112,2013-01-02 04:07:00,
2013-01-01 23:12:00,29.3,16.0,30.00,WNW,294,0.0,2.0,57,0.00,,,0.05,0,LWC V2.00 B2112,2013-01-02 04:12:00,
2013-01-01 23:17:00,29.2,15.9,30.00,SW,224,1.0,4.0,57,0.00,,,0.05,0,LWC V2.00 B2112,2013-01-02 04:17:00,
2013-01-01 23:22:00,29.2,15.5,30.00,SSW,211,0.0,4.0,56,0.00,,,0.05,0,LWC V2.00 B2112,2013-01-02 04:22:00,
2013-01-01 23:27:00,29.1,15.4,30.00,SSE,152,1.0,4.0,56,0.00,,,0.05,0,LWC V2.00 B2112,2013-01-02 04:27:00,
2013-01-01 23:32:00,29.0,15.3,30.00,WSW,255,3.0,4.0,56,0.00,,,0.05,0,LWC V2.00 B2112,2013-01-02 04:32:00,
2013-01-01 23:37:00,28.9,14.8,30.00,SW,225,2.0,5.0,55,0.00,,,0.05,0,LWC V2.00 B2112,2013-01-02 04:37:00,
2013-01-01 23:43:00,28.9,14.8,30.00,West,269,0.0,3.0,55,0.00,,,0.05,0,LWC V2.00 B2112,2013-01-02 04:43:00,
2013-01-01 23:47:00,28.8,15.1,29.99,West,275,2.0,3.0,56,0.00,,,0.05,0,LWC V2.00 B2112,2013-01-02 04:47:00,
2013-01-01 23:53:00,28.6,14.9,30.00,WSW,257,3.0,4.0,56,0.00,,,0.05,0,LWC V2.00 B2112,2013-01-02 04:53:00,
2013-01-01 23:58:00,28.5,14.8,30.00,SW,232,0.0,3.0,56,0.00,,,0.05,0,LWC V2.00 B2112,2013-01-02 04:58:00,